Time,TemperatureF,DewpointF,PressureIn,WindDirection,WindDirectionDegrees,WindSpeedMPH,WindSpeedGustMPH,Humidity,HourlyPrecipIn,Conditions,Clouds,dailyrainin,SolarRadiationWatts/m^2,SoftwareType,DateUTC
2016-12-03 00:02:00,39.9,32.7,29.79,West,277,3.0,10.0,75,0.00,,,0.00,0.0,meteohub,2016-12-03 05:02:00,
2016-12-03 00:07:00,40.1,32.9,29.79,WNW,290,4.0,10.0,75,0.00,,,0.00,0.0,meteohub,2016-12-03 05:07:00,
2016-12-03 00:12:00,39.9,32.7,29.79,WNW,284,3.0,8.0,75,0.00,,,0.00,0.0,meteohub,2016-12-03 05:12:00,
2016-12-03 00:17:00,39.9,32.7,29.79,South,180,2.0,9.0,75,0.00,,,0.00,0.0,meteohub,2016-12-03 05:17:00,
2016-12-03 00:22:00,39.9,32.7,29.79,WSW,257,2.0,9.0,75,0.00,,,0.00,0.0,meteohub,2016-12-03 05:22:00,
2016-12-03 00:27:00,39.7,32.5,29.79,WNW,284,3.0,9.0,75,0.00,,,0.00,0.0,meteohub,2016-12-03 05:27:00,
2016-12-03 00:32:00,39.9,32.4,29.79,West,259,2.0,9.0,74,0.00,,,0.00,0.0,meteohub,2016-12-03 05:32:00,
2016-12-03 00:37:00,39.9,32.7,29.79,SSW,192,5.0,15.0,75,0.00,,,0.00,0.0,meteohub,2016-12-03 05:37:00,
2016-12-03 00:42:00,39.9,32.4,29.80,SW,236,4.0,15.0,74,0.00,,,0.00,0.0,meteohub,2016-12-03 05:42:00,
2016-12-03 00:47:00,40.1,32.5,29.80,SW,230,1.0,15.0,74,0.00,,,0.00,0.0,meteohub,2016-12-03 05:47:00,
2016-12-03 00:52:00,39.9,32.4,29.80,SSE,157,1.0,12.0,74,0.00,,,0.00,0.0,meteohub,2016-12-03 05:52:00,
2016-12-03 00:57:00,39.9,32.0,29.80,South,182,1.0,12.0,73,0.00,,,0.00,0.0,meteohub,2016-12-03 05:57:00,
2016-12-03 01:02:00,39.9,32.0,29.80,West,267,0.0,12.0,73,0.00,,,0.00,0.0,meteohub,2016-12-03 06:02:00,
2016-12-03 01:07:00,39.9,32.0,29.81,West,278,2.0,11.0,73,0.00,,,0.00,0.0,meteohub,2016-12-03 06:07:00,
2016-12-03 01:12:00,39.9,32.0,29.81,SE,125,0.0,11.0,73,0.00,,,0.00,0.0,meteohub,2016-12-03 06:12:00,
2016-12-03 01:17:00,39.9,31.6,29.81,WSW,243,0.0,11.0,72,0.00,,,0.00,0.0,meteohub,2016-12-03 06:17:00,
2016-12-03 01:22:00,39.9,31.6,29.81,SE,144,2.0,14.0,72,0.00,,,0.00,0.0,meteohub,2016-12-03 06:22:00,
2016-12-03 01:27:00,40.1,31.8,29.81,WSW,246,5.0,14.0,72,0.00,,,0.00,0.0,meteohub,2016-12-03 06:27:00,
2016-12-03 01:32:00,40.1,31.8,29.81,WSW,256,3.0,14.0,72,0.00,,,0.00,0.0,meteohub,2016-12-03 06:32:00,
2016-12-03 01:37:00,40.3,31.6,29.81,WNW,297,1.0,9.0,71,0.00,,,0.00,0.0,meteohub,2016-12-03 06:37:00,
2016-12-03 01:42:00,40.3,31.6,29.81,West,262,6.0,10.0,71,0.00,,,0.00,0.0,meteohub,2016-12-03 06:42:00,
2016-12-03 01:47:00,40.1,31.5,29.81,WNW,292,2.0,10.0,71,0.00,,,0.00,0.0,meteohub,2016-12-03 06:47:00,
2016-12-03 01:52:00,39.9,31.6,29.81,SW,225,0.0,10.0,72,0.00,,,0.00,0.0,meteohub,2016-12-03 06:52:00,
2016-12-03 01:57:00,39.7,31.5,29.81,WSW,248,6.0,6.0,72,0.00,,,0.00,0.0,meteohub,2016-12-03 06:57:00,
2016-12-03 02:02:00,39.7,31.8,29.81,South,178,0.0,7.0,73,0.00,,,0.00,0.0,meteohub,2016-12-03 07:02:00,
2016-12-03 02:07:00,39.7,31.5,29.81,SW,223,5.0,8.0,72,0.00,,,0.00,0.0,meteohub,2016-12-03 07:07:00,
2016-12-03 02:12:00,39.9,31.6,29.81,South,175,2.0,16.0,72,0.00,,,0.00,0.0,meteohub,2016-12-03 07:12:00,
2016-12-03 02:17:00,39.9,31.6,29.81,NNW,333,9.0,16.0,72,0.00,,,0.00,0.0,meteohub,2016-12-03 07:17:00,
2016-12-03 02:22:00,40.1,31.8,29.81,NNW,331,6.0,16.0,72,0.00,,,0.00,0.0,meteohub,2016-12-03 07:22:00,
2016-12-03 02:27:00,40.1,31.5,29.81,SW,232,3.0,15.0,71,0.00,,,0.00,0.0,meteohub,2016-12-03 07:27:00,
2016-12-03 02:32:00,40.1,31.5,29.81,WSW,253,4.0,15.0,71,0.00,,,0.00,0.0,meteohub,2016-12-03 07:32:00,
2016-12-03 02:37:00,40.1,31.5,29.81,West,268,7.0,11.0,71,0.00,,,0.00,0.0,meteohub,2016-12-03 07:37:00,
2016-12-03 02:42:00,39.9,31.3,29.81,NNW,346,8.0,11.0,71,0.00,,,0.00,0.0,meteohub,2016-12-03 07:42:00,
2016-12-03 02:47:00,39.9,30.9,29.82,NW,317,5.0,11.0,70,0.00,,,0.00,0.0,meteohub,2016-12-03 07:47:00,
2016-12-03 02:52:00,39.7,30.7,29.82,South,186,3.0,13.0,70,0.00,,,0.00,0.0,meteohub,2016-12-03 07:52:00,
2016-12-03 02:57:00,39.7,30.7,29.81,WSW,253,7.0,13.0,70,0.00,,,0.00,0.0,meteohub,2016-12-03 07:57:00,
2016-12-03 03:02:00,39.7,30.7,29.82,West,267,3.0,13.0,70,0.00,,,0.00,0.0,meteohub,2016-12-03 08:02:00,
2016-12-03 03:07:00,39.6,29.8,29.82,WSW,254,6.0,9.0,68,0.00,,,0.00,0.0,meteohub,2016-12-03 08:07:00,
2016-12-03 03:12:00,39.6,29.8,29.82,SW,232,1.0,10.0,68,0.00,,,0.00,0.0,meteohub,2016-12-03 08:12:00,
2016-12-03 03:22:00,39.2,29.8,29.82,NW,314,0.0,10.0,69,0.00,,,0.00,0.0,meteohub,2016-12-03 08:22:00,
2016-12-03 03:27:00,39.0,29.7,29.83,WSW,254,4.0,9.0,69,0.00,,,0.00,0.0,meteohub,2016-12-03 08:27:00,
2016-12-03 03:32:00,39.0,29.7,29.83,SSW,192,5.0,13.0,69,0.00,,,0.00,0.0,meteohub,2016-12-03 08:32:00,
2016-12-03 03:37:00,39.0,29.7,29.83,West,264,2.0,13.0,69,0.00,,,0.00,0.0,meteohub,2016-12-03 08:37:00,
2016-12-03 03:42:00,39.0,29.7,29.83,WSW,244,3.0,13.0,69,0.00,,,0.00,0.0,meteohub,2016-12-03 08:42:00,
2016-12-03 03:47:00,38.8,29.5,29.83,NW,305,3.0,12.0,69,0.00,,,0.00,0.0,meteohub,2016-12-03 08:47:00,
2016-12-03 03:52:00,38.7,29.7,29.83,WNW,288,0.0,12.0,70,0.00,,,0.00,0.0,meteohub,2016-12-03 08:52:00,
2016-12-03 03:57:00,38.5,29.5,29.83,WSW,258,7.0,9.0,70,0.00,,,0.00,0.0,meteohub,2016-12-03 08:57:00,
2016-12-03 04:02:00,38.5,29.5,29.83,SW,216,2.0,10.0,70,0.00,,,0.00,0.0,meteohub,2016-12-03 09:02:00,
2016-12-03 04:07:00,38.5,29.5,29.83,North,9,2.0,10.0,70,0.00,,,0.00,0.0,meteohub,2016-12-03 09:07:00,
2016-12-03 04:12:00,38.5,29.1,29.83,West,277,1.0,10.0,69,0.00,,,0.00,0.0,meteohub,2016-12-03 09:12:00,
2016-12-03 04:17:00,38.5,28.8,29.83,SSW,202,3.0,10.0,68,0.00,,,0.00,0.0,meteohub,2016-12-03 09:17:00,
2016-12-03 04:22:00,38.5,28.8,29.83,NW,321,5.0,10.0,68,0.00,,,0.00,0.0,meteohub,2016-12-03 09:22:00,
2016-12-03 04:27:00,38.3,28.8,29.83,West,273,5.0,10.0,68,0.00,,,0.00,0.0,meteohub,2016-12-03 09:27:00,
2016-12-03 04:32:00,38.3,28.8,29.84,SW,221,4.0,10.0,68,0.00,,,0.00,0.0,meteohub,2016-12-03 09:32:00,
2016-12-03 04:37:00,38.1,28.6,29.83,SW,218,1.0,8.0,68,0.00,,,0.00,0.0,meteohub,2016-12-03 09:37:00,
2016-12-03 04:42:00,38.1,28.6,29.83,West,261,6.0,10.0,68,0.00,,,0.00,0.0,meteohub,2016-12-03 09:42:00,
2016-12-03 04:47:00,38.1,28.6,29.83,WNW,290,3.0,10.0,68,0.00,,,0.00,0.0,meteohub,2016-12-03 09:47:00,
2016-12-03 04:52:00,38.1,28.6,29.83,SSW,193,1.0,8.0,68,0.00,,,0.00,0.0,meteohub,2016-12-03 09:52:00,
2016-12-03 04:57:00,38.1,28.6,29.83,West,278,1.0,9.0,68,0.00,,,0.00,0.0,meteohub,2016-12-03 09:57:00,
2016-12-03 05:02:00,38.1,28.6,29.83,North,355,0.0,9.0,68,0.00,,,0.00,0.0,meteohub,2016-12-03 10:02:00,
2016-12-03 05:07:00,38.1,28.6,29.83,WNW,286,7.0,15.0,68,0.00,,,0.00,0.0,meteohub,2016-12-03 10:07:00,
2016-12-03 05:12:00,38.1,28.2,29.84,SW,230,3.0,15.0,67,0.00,,,0.00,0.0,meteohub,2016-12-03 10:12:00,
2016-12-03 05:17:00,37.9,28.4,29.84,NW,309,4.0,15.0,68,0.00,,,0.00,0.0,meteohub,2016-12-03 10:17:00,
2016-12-03 05:22:00,37.9,28.4,29.83,West,271,6.0,8.0,68,0.00,,,0.00,0.0,meteohub,2016-12-03 10:22:00,
2016-12-03 05:27:00,37.9,28.4,29.83,WNW,283,2.0,9.0,68,0.00,,,0.00,0.0,meteohub,2016-12-03 10:27:00,
2016-12-03 05:32:00,37.9,28.4,29.83,WSW,242,4.0,11.0,68,0.00,,,0.00,0.0,meteohub,2016-12-03 10:32:00,
2016-12-03 05:37:00,37.9,28.8,29.84,West,280,2.0,11.0,69,0.00,,,0.00,0.0,meteohub,2016-12-03 10:37:00,
2016-12-03 05:42:00,37.9,28.4,29.84,SSW,198,2.0,9.0,68,0.00,,,0.00,0.0,meteohub,2016-12-03 10:42:00,
2016-12-03 05:47:00,37.9,28.8,29.84,NW,314,5.0,9.0,69,0.00,,,0.00,0.0,meteohub,2016-12-03 10:47:00,
2016-12-03 05:52:00,37.9,28.4,29.84,WSW,254,5.0,12.0,68,0.00,,,0.00,0.0,meteohub,2016-12-03 10:52:00,
2016-12-03 05:57:00,38.1,28.6,29.84,WSW,244,1.0,12.0,68,0.00,,,0.00,0.0,meteohub,2016-12-03 10:57:00,
2016-12-03 06:02:00,38.1,28.6,29.84,NW,325,6.0,12.0,68,0.00,,,0.00,0.0,meteohub,2016-12-03 11:02:00,
2016-12-03 06:07:00,38.3,28.8,29.84,WNW,294,6.0,11.0,68,0.00,,,0.00,0.0,meteohub,2016-12-03 11:07:00,
2016-12-03 06:12:00,38.1,28.6,29.85,West,265,4.0,12.0,68,0.00,,,0.00,0.0,meteohub,2016-12-03 11:12:00,
2016-12-03 06:17:00,38.1,28.6,29.85,West,266,5.0,12.0,68,0.00,,,0.00,0.0,meteohub,2016-12-03 11:17:00,
2016-12-03 06:22:00,38.1,28.6,29.85,NNE,26,3.0,10.0,68,0.00,,,0.00,0.0,meteohub,2016-12-03 11:22:00,
2016-12-03 06:27:00,38.1,28.6,29.85,NW,312,12.0,12.0,68,0.00,,,0.00,0.0,meteohub,2016-12-03 11:27:00,
2016-12-03 06:32:00,38.1,28.6,29.85,NW,311,6.0,12.0,68,0.00,,,0.00,0.0,meteohub,2016-12-03 11:32:00,
2016-12-03 06:37:00,38.1,28.6,29.86,SW,234,4.0,12.0,68,0.00,,,0.00,0.0,meteohub,2016-12-03 11:37:00,
2016-12-03 06:42:00,38.1,28.6,29.85,NW,321,6.0,12.0,68,0.00,,,0.00,0.0,meteohub,2016-12-03 11:42:00,
2016-12-03 06:47:00,38.1,28.6,29.85,WNW,298,2.0,11.0,68,0.00,,,0.00,0.0,meteohub,2016-12-03 11:47:00,
2016-12-03 06:52:00,38.1,28.6,29.86,WSW,253,6.0,11.0,68,0.00,,,0.00,0.0,meteohub,2016-12-03 11:52:00,
2016-12-03 06:57:00,38.3,28.8,29.86,WNW,282,2.0,12.0,68,0.00,,,0.00,0.0,meteohub,2016-12-03 11:57:00,
2016-12-03 07:02:00,38.5,28.4,29.86,NW,306,3.0,12.0,67,0.00,,,0.00,5.0,meteohub,2016-12-03 12:02:00,
2016-12-03 07:07:00,38.5,28.8,29.86,SW,214,1.0,12.0,68,0.00,,,0.00,9.0,meteohub,2016-12-03 12:07:00,
2016-12-03 07:12:00,38.3,28.8,29.86,SW,236,7.0,12.0,68,0.00,,,0.00,9.0,meteohub,2016-12-03 12:12:00,
2016-12-03 07:17:00,38.1,28.6,29.86,SSE,162,3.0,11.0,68,0.00,,,0.00,9.0,meteohub,2016-12-03 12:17:00,
2016-12-03 07:22:00,38.1,28.6,29.86,SW,225,1.0,11.0,68,0.00,,,0.00,11.0,meteohub,2016-12-03 12:22:00,
2016-12-03 07:27:00,38.3,28.8,29.86,SSW,204,3.0,11.0,68,0.00,,,0.00,12.0,meteohub,2016-12-03 12:27:00,
2016-12-03 07:32:00,38.3,28.2,29.86,WNW,283,5.0,11.0,67,0.00,,,0.00,14.0,meteohub,2016-12-03 12:32:00,
2016-12-03 07:37:00,38.3,28.2,29.87,North,5,2.0,12.0,67,0.00,,,0.00,16.0,meteohub,2016-12-03 12:37:00,
2016-12-03 07:42:00,38.5,28.4,29.87,West,263,5.0,12.0,67,0.00,,,0.00,16.0,meteohub,2016-12-03 12:42:00,
2016-12-03 07:47:00,38.5,28.4,29.87,WNW,303,2.0,12.0,67,0.00,,,0.00,19.0,meteohub,2016-12-03 12:47:00,
2016-12-03 07:52:00,38.7,28.6,29.88,West,261,1.0,12.0,67,0.00,,,0.00,18.0,meteohub,2016-12-03 12:52:00,
2016-12-03 07:57:00,38.7,28.6,29.88,SW,234,3.0,12.0,67,0.00,,,0.00,19.0,meteohub,2016-12-03 12:57:00,
2016-12-03 08:02:00,38.7,28.6,29.88,South,191,1.0,12.0,67,0.00,,,0.00,23.0,meteohub,2016-12-03 13:02:00,
2016-12-03 08:07:00,38.8,28.8,29.88,SSE,160,2.0,12.0,67,0.00,,,0.00,21.0,meteohub,2016-12-03 13:07:00,
2016-12-03 08:17:00,39.0,28.6,29.88,South,169,0.0,13.0,66,0.00,,,0.00,26.0,meteohub,2016-12-03 13:17:00,
2016-12-03 08:22:00,39.4,28.9,29.88,SW,217,3.0,13.0,66,0.00,,,0.00,28.0,meteohub,2016-12-03 13:22:00,
2016-12-03 08:27:00,39.4,28.9,29.88,West,268,5.0,13.0,66,0.00,,,0.00,26.0,meteohub,2016-12-03 13:27:00,
2016-12-03 08:32:00,39.6,29.1,29.88,West,267,7.0,13.0,66,0.00,,,0.00,26.0,meteohub,2016-12-03 13:32:00,
2016-12-03 08:37:00,39.7,29.3,29.89,WSW,243,0.0,17.0,66,0.00,,,0.00,25.0,meteohub,2016-12-03 13:37:00,
2016-12-03 08:42:00,39.7,29.3,29.89,WSW,242,5.0,17.0,66,0.00,,,0.00,28.0,meteohub,2016-12-03 13:42:00,
2016-12-03 08:47:00,39.7,28.9,29.89,NNW,338,3.0,17.0,65,0.00,,,0.00,28.0,meteohub,2016-12-03 13:47:00,
2016-12-03 08:52:00,39.9,29.1,29.89,North,355,10.0,15.0,65,0.00,,,0.00,76.0,meteohub,2016-12-03 13:52:00,
2016-12-03 08:57:00,40.1,29.3,29.89,WNW,289,2.0,15.0,65,0.00,,,0.00,86.0,meteohub,2016-12-03 13:57:00,
2016-12-03 09:02:00,40.3,29.5,29.90,WNW,284,4.0,15.0,65,0.00,,,0.00,86.0,meteohub,2016-12-03 14:02:00,
2016-12-03 09:07:00,40.5,29.3,29.89,WSW,257,5.0,13.0,64,0.00,,,0.00,116.0,meteohub,2016-12-03 14:07:00,
2016-12-03 09:12:00,40.6,29.5,29.90,East,94,2.0,13.0,64,0.00,,,0.00,151.0,meteohub,2016-12-03 14:12:00,
2016-12-03 09:17:00,40.8,29.7,29.90,South,183,0.0,13.0,64,0.00,,,0.00,81.0,meteohub,2016-12-03 14:17:00,
2016-12-03 09:22:00,40.8,29.7,29.90,West,277,5.0,9.0,64,0.00,,,0.00,30.0,meteohub,2016-12-03 14:22:00,
2016-12-03 09:27:00,41.2,29.5,29.91,SW,236,8.0,19.0,63,0.00,,,0.00,72.0,meteohub,2016-12-03 14:27:00,
2016-12-03 09:32:00,41.4,29.7,29.91,North,0,0.0,19.0,63,0.00,,,0.00,246.0,meteohub,2016-12-03 14:32:00,
2016-12-03 09:37:00,41.5,29.8,29.91,SE,142,0.0,19.0,63,0.00,,,0.00,153.0,meteohub,2016-12-03 14:37:00,
2016-12-03 09:42:00,41.7,29.7,29.91,West,268,8.0,12.0,62,0.00,,,0.00,135.0,meteohub,2016-12-03 14:42:00,
2016-12-03 09:47:00,41.9,29.5,29.91,NNE,32,0.0,12.0,61,0.00,,,0.00,128.0,meteohub,2016-12-03 14:47:00,
2016-12-03 09:52:00,42.1,30.0,29.91,West,261,9.0,16.0,62,0.00,,,0.00,137.0,meteohub,2016-12-03 14:52:00,
2016-12-03 09:57:00,42.1,29.7,29.91,NW,313,3.0,16.0,61,0.00,,,0.00,107.0,meteohub,2016-12-03 14:57:00,
2016-12-03 10:02:00,42.3,29.8,29.91,WNW,295,7.0,16.0,61,0.00,,,0.00,257.0,meteohub,2016-12-03 15:02:00,
2016-12-03 10:07:00,42.4,29.5,29.91,ESE,109,7.0,16.0,60,0.00,,,0.00,274.0,meteohub,2016-12-03 15:07:00,
2016-12-03 10:12:00,42.6,29.7,29.91,SW,228,6.0,11.0,60,0.00,,,0.00,178.0,meteohub,2016-12-03 15:12:00,
2016-12-03 10:17:00,42.8,29.5,29.92,NE,55,2.0,10.0,59,0.00,,,0.00,264.0,meteohub,2016-12-03 15:17:00,
2016-12-03 10:22:00,43.0,30.0,29.91,NW,309,4.0,13.0,60,0.00,,,0.00,153.0,meteohub,2016-12-03 15:22:00,
2016-12-03 10:27:00,43.2,29.8,29.91,NW,304,18.0,18.0,59,0.00,,,0.00,218.0,meteohub,2016-12-03 15:27:00,
2016-12-03 10:32:00,43.0,29.7,29.91,North,351,4.0,18.0,59,0.00,,,0.00,174.0,meteohub,2016-12-03 15:32:00,
2016-12-03 10:37:00,43.0,29.7,29.91,NNW,346,4.0,18.0,59,0.00,,,0.00,165.0,meteohub,2016-12-03 15:37:00,
2016-12-03 10:42:00,43.2,29.3,29.91,WNW,294,1.0,18.0,58,0.00,,,0.00,67.0,meteohub,2016-12-03 15:42:00,
2016-12-03 10:47:00,43.3,29.5,29.91,ENE,73,3.0,18.0,58,0.00,,,0.00,63.0,meteohub,2016-12-03 15:47:00,
2016-12-03 10:52:00,43.3,29.5,29.91,SW,218,1.0,16.0,58,0.00,,,0.00,279.0,meteohub,2016-12-03 15:52:00,
2016-12-03 10:57:00,43.5,29.7,29.91,NE,43,3.0,14.0,58,0.00,,,0.00,408.0,meteohub,2016-12-03 15:57:00,
2016-12-03 11:02:00,43.9,30.0,29.91,ENE,68,3.0,14.0,58,0.00,,,0.00,374.0,meteohub,2016-12-03 16:02:00,
2016-12-03 11:12:00,44.1,29.8,29.91,NNW,344,10.0,14.0,57,0.00,,,0.00,269.0,meteohub,2016-12-03 16:12:00,
2016-12-03 11:17:00,44.1,29.8,29.91,SSW,207,5.0,17.0,57,0.00,,,0.00,269.0,meteohub,2016-12-03 16:17:00,
2016-12-03 11:22:00,44.2,30.0,29.91,NW,314,5.0,17.0,57,0.00,,,0.00,287.0,meteohub,2016-12-03 16:22:00,
2016-12-03 11:27:00,44.4,29.7,29.91,NNW,344,7.0,17.0,56,0.00,,,0.00,171.0,meteohub,2016-12-03 16:27:00,
2016-12-03 11:32:00,44.2,29.1,29.91,NNW,332,5.0,15.0,55,0.00,,,0.00,91.0,meteohub,2016-12-03 16:32:00,
2016-12-03 11:37:00,43.9,29.1,29.91,North,5,4.0,14.0,56,0.00,,,0.00,123.0,meteohub,2016-12-03 16:37:00,
2016-12-03 11:42:00,43.9,29.7,29.91,WNW,291,4.0,14.0,57,0.00,,,0.00,179.0,meteohub,2016-12-03 16:42:00,
2016-12-03 11:47:00,44.1,29.3,29.91,SW,221,2.0,12.0,56,0.00,,,0.00,290.0,meteohub,2016-12-03 16:47:00,
2016-12-03 11:52:00,44.2,29.5,29.91,NW,307,4.0,11.0,56,0.00,,,0.00,197.0,meteohub,2016-12-03 16:52:00,
2016-12-03 11:57:00,44.4,29.7,29.91,NE,56,6.0,17.0,56,0.00,,,0.00,167.0,meteohub,2016-12-03 16:57:00,
2016-12-03 12:02:00,44.6,29.8,29.91,WSW,250,8.0,17.0,56,0.00,,,0.00,162.0,meteohub,2016-12-03 17:02:00,
2016-12-03 12:07:00,44.8,29.7,29.91,ESE,119,7.0,19.0,55,0.00,,,0.00,334.0,meteohub,2016-12-03 17:07:00,
2016-12-03 12:12:00,45.1,30.0,29.91,North,355,7.0,19.0,55,0.00,,,0.00,287.0,meteohub,2016-12-03 17:12:00,
2016-12-03 12:17:00,45.1,30.0,29.91,North,0,4.0,13.0,55,0.00,,,0.00,174.0,meteohub,2016-12-03 17:17:00,
2016-12-03 12:22:00,45.3,29.7,29.90,NW,304,2.0,13.0,54,0.00,,,0.00,171.0,meteohub,2016-12-03 17:22:00,
2016-12-03 12:27:00,45.3,30.0,29.90,WSW,257,3.0,13.0,55,0.00,,,0.00,390.0,meteohub,2016-12-03 17:27:00,
2016-12-03 12:32:00,45.5,29.8,29.91,West,277,4.0,11.0,54,0.00,,,0.00,79.0,meteohub,2016-12-03 17:32:00,
2016-12-03 12:37:00,45.3,29.7,29.91,East,80,1.0,15.0,54,0.00,,,0.00,90.0,meteohub,2016-12-03 17:37:00,
2016-12-03 12:42:00,45.3,30.0,29.90,WSW,250,5.0,15.0,55,0.00,,,0.00,146.0,meteohub,2016-12-03 17:42:00,
2016-12-03 12:47:00,45.3,30.0,29.91,North,10,6.0,15.0,55,0.00,,,0.00,190.0,meteohub,2016-12-03 17:47:00,
2016-12-03 12:52:00,45.3,30.0,29.90,ENE,60,1.0,15.0,55,0.00,,,0.00,127.0,meteohub,2016-12-03 17:52:00,
2016-12-03 12:57:00,45.3,30.0,29.91,SE,140,2.0,14.0,55,0.00,,,0.00,95.0,meteohub,2016-12-03 17:57:00,
2016-12-03 13:02:00,45.0,29.3,29.91,North,10,3.0,13.0,54,0.00,,,0.00,318.0,meteohub,2016-12-03 18:02:00,
2016-12-03 13:07:00,45.0,29.8,29.91,WNW,302,6.0,17.0,55,0.00,,,0.00,197.0,meteohub,2016-12-03 18:07:00,
2016-12-03 13:12:00,44.8,30.0,29.91,WSW,246,2.0,17.0,56,0.00,,,0.00,67.0,meteohub,2016-12-03 18:12:00,
2016-12-03 13:17:00,44.8,30.0,29.91,West,262,3.0,17.0,56,0.00,,,0.00,113.0,meteohub,2016-12-03 18:17:00,
2016-12-03 13:22:00,44.8,29.7,29.91,SW,233,14.0,15.0,55,0.00,,,0.00,183.0,meteohub,2016-12-03 18:22:00,
2016-12-03 13:27:00,44.8,30.0,29.91,NW,315,3.0,18.0,56,0.00,,,0.00,167.0,meteohub,2016-12-03 18:27:00,
2016-12-03 13:32:00,44.8,30.0,29.91,SSE,159,4.0,18.0,56,0.00,,,0.00,146.0,meteohub,2016-12-03 18:32:00,
2016-12-03 13:37:00,45.0,30.2,29.91,WNW,283,8.0,18.0,56,0.00,,,0.00,65.0,meteohub,2016-12-03 18:37:00,
2016-12-03 13:42:00,44.4,30.2,29.92,ESE,108,2.0,17.0,57,0.00,,,0.00,109.0,meteohub,2016-12-03 18:42:00,
2016-12-03 13:47:00,44.4,30.2,29.92,WSW,251,4.0,17.0,57,0.00,,,0.00,116.0,meteohub,2016-12-03 18:47:00,
2016-12-03 13:52:00,44.2,30.0,29.92,West,270,5.0,17.0,57,0.00,,,0.00,107.0,meteohub,2016-12-03 18:52:00,
2016-12-03 13:57:00,43.9,29.1,29.92,WSW,246,6.0,15.0,56,0.00,,,0.00,105.0,meteohub,2016-12-03 18:57:00,
2016-12-03 14:02:00,43.5,29.3,29.92,WNW,302,5.0,16.0,57,0.00,,,0.00,128.0,meteohub,2016-12-03 19:02:00,
2016-12-03 14:07:00,43.3,29.1,29.92,WSW,256,5.0,16.0,57,0.00,,,0.00,128.0,meteohub,2016-12-03 19:07:00,
2016-12-03 14:12:00,43.2,28.9,29.92,WNW,298,6.0,16.0,57,0.00,,,0.00,95.0,meteohub,2016-12-03 19:12:00,
2016-12-03 14:17:00,43.0,28.8,29.93,SSW,213,2.0,15.0,57,0.00,,,0.00,56.0,meteohub,2016-12-03 19:17:00,
2016-12-03 14:22:00,42.6,28.0,29.93,North,0,3.0,17.0,56,0.00,,,0.00,91.0,meteohub,2016-12-03 19:22:00,
2016-12-03 14:27:00,42.6,28.4,29.93,WNW,300,2.0,17.0,57,0.00,,,0.00,98.0,meteohub,2016-12-03 19:27:00,
2016-12-03 14:32:00,42.6,28.9,29.93,WSW,241,2.0,12.0,58,0.00,,,0.00,62.0,meteohub,2016-12-03 19:32:00,
2016-12-03 14:37:00,42.8,29.1,29.93,NE,37,0.0,13.0,58,0.00,,,0.00,74.0,meteohub,2016-12-03 19:37:00,
2016-12-03 14:42:00,42.6,28.9,29.94,NW,321,3.0,13.0,58,0.00,,,0.00,53.0,meteohub,2016-12-03 19:42:00,
2016-12-03 14:52:00,42.1,28.4,29.94,NW,326,3.0,12.0,58,0.00,,,0.00,35.0,meteohub,2016-12-03 19:52:00,
2016-12-03 14:57:00,42.1,28.4,29.94,WSW,255,7.0,14.0,58,0.00,,,0.00,77.0,meteohub,2016-12-03 19:57:00,
2016-12-03 15:02:00,42.1,28.4,29.94,West,273,1.0,14.0,58,0.00,,,0.00,51.0,meteohub,2016-12-03 20:02:00,
2016-12-03 15:07:00,42.3,28.0,29.95,WSW,251,1.0,14.0,57,0.00,,,0.00,40.0,meteohub,2016-12-03 20:07:00,
2016-12-03 15:12:00,42.3,28.6,29.94,NNW,334,5.0,10.0,58,0.00,,,0.00,39.0,meteohub,2016-12-03 20:12:00,
2016-12-03 15:17:00,42.3,28.6,29.94,WSW,240,6.0,9.0,58,0.00,,,0.00,40.0,meteohub,2016-12-03 20:17:00,
2016-12-03 15:22:00,42.3,28.6,29.94,NW,308,5.0,10.0,58,0.00,,,0.00,37.0,meteohub,2016-12-03 20:22:00,
2016-12-03 15:27:00,42.3,28.6,29.94,SSW,197,6.0,10.0,58,0.00,,,0.00,19.0,meteohub,2016-12-03 20:27:00,
2016-12-03 15:32:00,42.3,28.0,29.95,North,355,4.0,11.0,57,0.00,,,0.00,21.0,meteohub,2016-12-03 20:32:00,
2016-12-03 15:37:00,42.3,28.0,29.95,NNW,346,0.0,13.0,57,0.00,,,0.00,19.0,meteohub,2016-12-03 20:37:00,
2016-12-03 15:42:00,42.1,27.9,29.95,West,281,6.0,13.0,57,0.00,,,0.00,19.0,meteohub,2016-12-03 20:42:00,
2016-12-03 15:47:00,41.9,28.2,29.96,NW,310,4.0,13.0,58,0.00,,,0.00,12.0,meteohub,2016-12-03 20:47:00,
2016-12-03 15:52:00,41.7,28.0,29.96,NW,310,3.0,13.0,58,0.00,,,0.00,11.0,meteohub,2016-12-03 20:52:00,
2016-12-03 15:57:00,41.5,27.9,29.96,West,275,3.0,10.0,58,0.00,,,0.00,9.0,meteohub,2016-12-03 20:57:00,
2016-12-03 16:02:00,41.4,28.0,29.96,South,184,4.0,12.0,59,0.00,,,0.00,9.0,meteohub,2016-12-03 21:02:00,
2016-12-03 16:07:00,41.4,28.0,29.96,WNW,288,3.0,13.0,59,0.00,,,0.00,7.0,meteohub,2016-12-03 21:07:00,
2016-12-03 16:12:00,41.2,27.9,29.97,SW,221,2.0,14.0,59,0.00,,,0.00,5.0,meteohub,2016-12-03 21:12:00,
2016-12-03 16:17:00,41.2,28.4,29.97,South,178,3.0,14.0,60,0.00,,,0.00,0.0,meteohub,2016-12-03 21:17:00,
2016-12-03 16:22:00,41.0,28.2,29.98,WNW,296,0.0,11.0,60,0.00,,,0.00,0.0,meteohub,2016-12-03 21:22:00,
2016-12-03 16:27:00,40.8,28.0,29.98,NW,319,2.0,11.0,60,0.00,,,0.00,0.0,meteohub,2016-12-03 21:27:00,
2016-12-03 16:32:00,40.6,28.2,29.98,NW,304,5.0,8.0,61,0.00,,,0.00,0.0,meteohub,2016-12-03 21:32:00,
2016-12-03 16:37:00,40.6,28.2,29.98,SSW,192,3.0,16.0,61,0.00,,,0.00,0.0,meteohub,2016-12-03 21:37:00,
2016-12-03 16:42:00,40.6,27.9,29.99,NW,318,3.0,16.0,60,0.00,,,0.00,0.0,meteohub,2016-12-03 21:42:00,
2016-12-03 16:47:00,40.6,28.2,29.99,WSW,251,2.0,9.0,61,0.00,,,0.00,0.0,meteohub,2016-12-03 21:47:00,
2016-12-03 16:52:00,40.6,28.2,29.99,WSW,251,0.0,8.0,61,0.00,,,0.00,0.0,meteohub,2016-12-03 21:52:00,
2016-12-03 16:57:00,40.6,28.2,29.99,WSW,256,0.0,8.0,61,0.00,,,0.00,0.0,meteohub,2016-12-03 21:57:00,
2016-12-03 17:02:00,40.6,28.2,29.99,WSW,249,2.0,9.0,61,0.00,,,0.00,0.0,meteohub,2016-12-03 22:02:00,
2016-12-03 17:07:00,40.6,28.2,29.99,WNW,301,2.0,10.0,61,0.00,,,0.00,0.0,meteohub,2016-12-03 22:07:00,
2016-12-03 17:12:00,40.5,28.0,30.00,WNW,288,1.0,12.0,61,0.00,,,0.00,0.0,meteohub,2016-12-03 22:12:00,
2016-12-03 17:17:00,40.5,28.4,30.00,North,355,1.0,12.0,62,0.00,,,0.00,0.0,meteohub,2016-12-03 22:17:00,
2016-12-03 17:22:00,40.3,28.2,30.01,West,269,0.0,6.0,62,0.00,,,0.00,0.0,meteohub,2016-12-03 22:22:00,
2016-12-03 17:27:00,40.3,28.2,30.01,NW,312,1.0,6.0,62,0.00,,,0.00,0.0,meteohub,2016-12-03 22:27:00,
2016-12-03 17:32:00,40.1,28.0,30.01,WSW,241,3.0,8.0,62,0.00,,,0.00,0.0,meteohub,2016-12-03 22:32:00,
2016-12-03 17:37:00,40.1,28.6,30.02,West,261,4.0,8.0,63,0.00,,,0.00,0.0,meteohub,2016-12-03 22:37:00,
2016-12-03 17:42:00,39.9,28.4,30.02,SW,233,0.0,8.0,63,0.00,,,0.00,0.0,meteohub,2016-12-03 22:42:00,
2016-12-03 17:47:00,39.9,28.4,30.02,NW,304,3.0,8.0,63,0.00,,,0.00,0.0,meteohub,2016-12-03 22:47:00,
2016-12-03 17:52:00,40.1,28.6,30.02,SW,223,3.0,8.0,63,0.00,,,0.00,0.0,meteohub,2016-12-03 22:52:00,
2016-12-03 17:57:00,40.3,27.9,30.03,WNW,283,1.0,8.0,61,0.00,,,0.00,0.0,meteohub,2016-12-03 22:57:00,
2016-12-03 18:02:00,40.5,28.0,30.03,West,271,3.0,9.0,61,0.00,,,0.00,0.0,meteohub,2016-12-03 23:02:00,
2016-12-03 18:07:00,40.6,27.9,30.04,SW,230,4.0,9.0,60,0.00,,,0.00,0.0,meteohub,2016-12-03 23:07:00,
2016-12-03 18:12:00,40.6,27.9,30.04,WNW,289,0.0,9.0,60,0.00,,,0.00,0.0,meteohub,2016-12-03 23:12:00,
2016-12-03 18:17:00,40.6,28.2,30.04,WNW,289,0.0,8.0,61,0.00,,,0.00,0.0,meteohub,2016-12-03 23:17:00,
2016-12-03 18:27:00,40.5,28.0,30.04,WSW,252,6.0,8.0,61,0.00,,,0.00,0.0,meteohub,2016-12-03 23:27:00,
2016-12-03 18:32:00,40.5,27.7,30.04,NW,305,3.0,10.0,60,0.00,,,0.00,0.0,meteohub,2016-12-03 23:32:00,
2016-12-03 18:37:00,40.3,27.5,30.04,West,275,3.0,11.0,60,0.00,,,0.00,0.0,meteohub,2016-12-03 23:37:00,
2016-12-03 18:42:00,40.1,27.7,30.04,NW,308,0.0,11.0,61,0.00,,,0.00,0.0,meteohub,2016-12-03 23:42:00,
2016-12-03 18:47:00,39.9,27.5,30.04,West,279,2.0,11.0,61,0.00,,,0.00,0.0,meteohub,2016-12-03 23:47:00,
2016-12-03 18:52:00,39.9,27.5,30.04,WSW,257,2.0,12.0,61,0.00,,,0.00,0.0,meteohub,2016-12-03 23:52:00,
2016-12-03 18:57:00,39.7,27.3,30.04,West,260,6.0,12.0,61,0.00,,,0.00,0.0,meteohub,2016-12-03 23:57:00,
2016-12-03 19:02:00,39.9,27.1,30.04,NNW,333,2.0,12.0,60,0.00,,,0.00,0.0,meteohub,2016-12-04 00:02:00,
2016-12-03 19:07:00,39.9,27.1,30.04,WNW,286,3.0,8.0,60,0.00,,,0.00,0.0,meteohub,2016-12-04 00:07:00,
2016-12-03 19:12:00,39.9,27.1,30.05,West,263,4.0,8.0,60,0.00,,,0.00,0.0,meteohub,2016-12-04 00:12:00,
2016-12-03 19:17:00,40.1,27.3,30.05,ENE,58,2.0,9.0,60,0.00,,,0.00,0.0,meteohub,2016-12-04 00:17:00,
2016-12-03 19:22:00,39.9,27.1,30.05,NNW,332,0.0,9.0,60,0.00,,,0.00,0.0,meteohub,2016-12-04 00:22:00,
2016-12-03 19:27:00,39.9,26.8,30.05,NW,308,2.0,10.0,59,0.00,,,0.00,0.0,meteohub,2016-12-04 00:27:00,
2016-12-03 19:32:00,39.9,26.8,30.05,NW,304,4.0,10.0,59,0.00,,,0.00,0.0,meteohub,2016-12-04 00:32:00,
2016-12-03 19:37:00,39.7,26.6,30.06,SSE,165,3.0,10.0,59,0.00,,,0.00,0.0,meteohub,2016-12-04 00:37:00,
2016-12-03 19:42:00,39.7,26.6,30.06,NE,53,4.0,11.0,59,0.00,,,0.00,0.0,meteohub,2016-12-04 00:42:00,